Location: Il Ritiro
(43.4167°N, 13.1333°E)
Time: 01:23:40
(UTC+00:00)

ALOS 2 - Pass Details

Date: 05 July 2020
Orbit: 630 x 632 km, 97.9° (Epoch: 11 August)

Event Time Altitude Azimuth Distance (km) Brightness Sun altitude
Exits shadow 21:57:54 33° 93° (E) 1,070 3.5 -21.7°
Maximum altitude 21:58:41 36° 70° (ENE) 1,014 3.6 -21.8°
Drops below altitude 10° 22:02:42 10° 4° (N) 2,024 6.2 -22.0°
Sets 22:05:01 0° 356° (N) 2,936 7.4 -22.1°
